TimeCST,TemperatureF,Dew PointF,Humidity,Sea Level PressureIn,VisibilityMPH,Wind Direction,Wind SpeedMPH,Gust SpeedMPH,PrecipitationIn,Events,Conditions,WindDirDegrees,DateUTC
12:15 AM,64.4,60.8,88,30.19,7.0,NNE,4.6,-,N/A,,Unknown,20,2012-11-16 06:15:00
12:35 AM,64.4,60.8,88,30.18,7.0,NNE,4.6,-,N/A,,Unknown,20,2012-11-16 06:35:00
12:55 AM,64.4,62.6,94,30.18,7.0,NNE,3.5,-,N/A,,Unknown,30,2012-11-16 06:55:00
1:15 AM,64.4,62.6,94,30.18,7.0,NNE,4.6,-,N/A,,Unknown,30,2012-11-16 07:15:00
1:35 AM,64.4,62.6,94,30.18,7.0,NNE,4.6,-,N/A,,Unknown,30,2012-11-16 07:35:00
1:55 AM,66.2,62.6,88,30.18,7.0,NE,4.6,-,N/A,,Unknown,50,2012-11-16 07:55:00
2:15 AM,66.2,62.6,88,30.18,7.0,NE,5.8,-,N/A,,Unknown,50,2012-11-16 08:15:00
2:35 AM,66.2,62.6,88,30.18,7.0,NE,5.8,-,N/A,,Unknown,50,2012-11-16 08:35:00
2:55 AM,66.2,62.6,88,30.17,10.0,NE,4.6,-,N/A,,Unknown,50,2012-11-16 08:55:00
3:15 AM,66.2,62.6,88,30.17,10.0,NE,6.9,-,N/A,,Unknown,40,2012-11-16 09:15:00
3:35 AM,66.2,62.6,88,30.16,10.0,NNE,4.6,-,N/A,,Unknown,30,2012-11-16 09:35:00
3:55 AM,66.2,62.6,88,30.17,10.0,NE,4.6,-,N/A,,Unknown,40,2012-11-16 09:55:00
4:15 AM,66.2,62.6,88,30.17,10.0,NNE,4.6,-,N/A,,Unknown,30,2012-11-16 10:15:00
4:35 AM,66.2,62.6,88,30.17,10.0,NE,4.6,-,N/A,Rain,Rain,40,2012-11-16 10:35:00
4:55 AM,66.2,62.6,88,30.17,7.0,NNE,3.5,-,N/A,,Drizzle,30,2012-11-16 10:55:00
5:15 AM,64.4,62.6,94,30.17,10.0,NNE,4.6,-,N/A,,Light Drizzle,30,2012-11-16 11:15:00
5:35 AM,66.2,62.6,88,30.18,10.0,Calm,Calm,-,N/A,,Unknown,0,2012-11-16 11:35:00
5:55 AM,64.4,62.6,94,30.18,10.0,Calm,Calm,-,N/A,,Unknown,0,2012-11-16 11:55:00
6:15 AM,64.4,62.6,94,30.18,10.0,NNW,5.8,-,N/A,,Unknown,340,2012-11-16 12:15:00
6:35 AM,64.4,60.8,88,30.19,10.0,North,4.6,-,N/A,,Unknown,350,2012-11-16 12:35:00
6:55 AM,64.4,60.8,88,30.19,10.0,NE,4.6,-,N/A,,Unknown,50,2012-11-16 12:55:00
7:15 AM,64.4,60.8,88,30.20,10.0,NNE,3.5,-,N/A,,Unknown,20,2012-11-16 13:15:00
7:35 AM,64.4,60.8,88,30.21,10.0,NNE,3.5,-,N/A,,Unknown,20,2012-11-16 13:35:00
7:55 AM,64.4,60.8,88,30.21,10.0,NNE,4.6,-,N/A,,Unknown,30,2012-11-16 13:55:00
8:15 AM,66.2,60.8,83,30.22,10.0,NNE,5.8,-,N/A,,Unknown,30,2012-11-16 14:15:00
8:35 AM,68.0,60.8,78,30.23,10.0,NE,6.9,-,N/A,,Unknown,40,2012-11-16 14:35:00
8:55 AM,68.0,60.8,78,30.24,10.0,NE,8.1,-,N/A,,Unknown,50,2012-11-16 14:55:00
9:15 AM,69.8,60.8,73,30.24,10.0,NE,5.8,-,N/A,,Unknown,50,2012-11-16 15:15:00
9:35 AM,69.8,60.8,73,30.25,10.0,NE,8.1,-,N/A,,Unknown,50,2012-11-16 15:35:00
9:55 AM,69.8,59.0,68,30.26,10.0,ENE,11.5,-,N/A,,Unknown,60,2012-11-16 15:55:00
10:15 AM,71.6,59.0,64,30.26,10.0,ENE,11.5,-,N/A,,Unknown,60,2012-11-16 16:15:00
10:35 AM,71.6,59.0,64,30.25,10.0,ENE,12.7,16.1,N/A,,Unknown,60,2012-11-16 16:35:00
10:55 AM,71.6,57.2,60,30.26,10.0,ENE,9.2,18.4,N/A,,Unknown,70,2012-11-16 16:55:00
11:15 AM,71.6,57.2,60,30.26,10.0,ENE,17.3,21.9,N/A,,Unknown,60,2012-11-16 17:15:00
11:35 AM,71.6,57.2,60,30.25,10.0,ENE,12.7,21.9,N/A,,Unknown,70,2012-11-16 17:35:00
11:55 AM,71.6,57.2,60,30.25,10.0,ENE,15.0,19.6,N/A,,Unknown,60,2012-11-16 17:55:00
12:15 PM,71.6,55.4,57,30.24,10.0,ENE,13.8,20.7,0.01,,Unknown,60,2012-11-16 18:15:00
12:35 PM,71.6,55.4,57,30.24,10.0,ENE,11.5,-,0.01,,Unknown,60,2012-11-16 18:35:00
12:55 PM,71.6,55.4,57,30.23,10.0,NE,12.7,17.3,0.01,,Unknown,50,2012-11-16 18:55:00
1:15 PM,71.6,55.4,57,30.22,10.0,ENE,10.4,-,N/A,,Unknown,60,2012-11-16 19:15:00
1:35 PM,71.6,53.6,53,30.22,10.0,NE,12.7,16.1,N/A,,Unknown,50,2012-11-16 19:35:00
1:55 PM,71.6,55.4,57,30.21,10.0,ENE,8.1,-,N/A,,Unknown,60,2012-11-16 19:55:00
2:15 PM,71.6,55.4,57,30.21,10.0,ENE,10.4,16.1,N/A,,Unknown,60,2012-11-16 20:15:00
2:35 PM,71.6,55.4,57,30.21,10.0,NE,13.8,17.3,N/A,,Unknown,40,2012-11-16 20:35:00
2:55 PM,69.8,53.6,56,30.21,10.0,NE,11.5,19.6,N/A,,Unknown,50,2012-11-16 20:55:00
3:15 PM,69.8,53.6,56,30.21,10.0,ENE,9.2,20.7,N/A,,Unknown,70,2012-11-16 21:15:00
3:35 PM,71.6,53.6,53,30.21,10.0,NE,13.8,18.4,N/A,,Unknown,50,2012-11-16 21:35:00
3:55 PM,69.8,53.6,56,30.21,10.0,NE,12.7,17.3,N/A,,Unknown,50,2012-11-16 21:55:00
4:15 PM,68.0,53.6,60,30.22,10.0,NE,15.0,20.7,N/A,,Unknown,40,2012-11-16 22:15:00
4:35 PM,68.0,53.6,60,30.23,10.0,ENE,10.4,17.3,N/A,,Unknown,60,2012-11-16 22:35:00
4:55 PM,69.8,51.8,53,30.23,10.0,NE,9.2,18.4,N/A,,Unknown,50,2012-11-16 22:55:00
5:15 PM,69.8,51.8,53,30.23,10.0,NE,9.2,-,N/A,,Unknown,50,2012-11-16 23:15:00
5:35 PM,68.0,51.8,56,30.24,10.0,NE,6.9,-,N/A,,Unknown,50,2012-11-16 23:35:00
5:55 PM,68.0,51.8,56,30.24,10.0,NNE,8.1,-,N/A,,Unknown,30,2012-11-16 23:55:00
6:15 PM,68.0,51.8,56,30.25,10.0,NNE,8.1,-,N/A,,Unknown,30,2012-11-17 00:15:00
6:35 PM,68.0,51.8,56,30.25,10.0,NNE,6.9,-,N/A,,Unknown,30,2012-11-17 00:35:00
6:55 PM,66.2,51.8,60,30.25,10.0,NNE,10.4,-,N/A,,Unknown,30,2012-11-17 00:55:00
7:15 PM,66.2,51.8,60,30.26,10.0,NNE,6.9,-,N/A,,Unknown,20,2012-11-17 01:15:00
7:55 PM,64.4,51.8,64,30.27,10.0,North,5.8,-,N/A,,Unknown,10,2012-11-17 01:55:00
8:15 PM,64.4,51.8,64,30.27,10.0,North,4.6,-,N/A,,Unknown,10,2012-11-17 02:15:00
8:35 PM,64.4,50.0,59,30.28,10.0,NNE,5.8,-,N/A,,Unknown,20,2012-11-17 02:35:00
8:55 PM,64.4,50.0,59,30.29,10.0,North,5.8,-,N/A,,Unknown,10,2012-11-17 02:55:00
9:15 PM,64.4,50.0,59,30.30,10.0,North,6.9,-,N/A,,Unknown,360,2012-11-17 03:15:00
9:55 PM,62.6,50.0,63,30.30,10.0,North,4.6,-,N/A,,Unknown,360,2012-11-17 03:55:00
10:15 PM,62.6,50.0,63,30.29,10.0,NNE,4.6,-,N/A,,Unknown,20,2012-11-17 04:15:00
10:35 PM,62.6,50.0,63,30.29,10.0,NNE,5.8,-,N/A,,Unknown,20,2012-11-17 04:35:00
10:55 PM,62.6,50.0,63,30.29,10.0,North,6.9,-,N/A,,Unknown,10,2012-11-17 04:55:00
11:15 PM,62.6,48.2,59,30.29,10.0,North,5.8,-,N/A,,Unknown,10,2012-11-17 05:15:00
11:35 PM,62.6,48.2,59,30.29,10.0,North,5.8,-,N/A,,Unknown,10,2012-11-17 05:35:00
11:55 PM,62.6,48.2,59,30.28,10.0,North,4.6,-,N/A,,Unknown,10,2012-11-17 05:55:00